Find Starlink 34198

NORAD ID: 64388 Int'l Des: 2025-127 Owner: SPXS Country: US Constellation: starlink operational
LEOCIRCULAR

当前视图

正在加载3D地球...

About Starlink 34198

Starlink 34198 (NORAD 64388) is a starlink constellation satellite (v2 mini) launched Jun 13, 2025 by SPXS of US. It operates in LEO, CIRCULAR orbit with a mass of 575.00 kg.

即将过境

Passes for default location (London). Set your location on the main map for personalized predictions.

高度历史

Loading altitude history...

两行轨道根数

1 64388U 25127U 26236.48669039 .00028821 00000-0 10519-2 0 9999
2 64388 43.0016 311.7934 0001639 262.2647 97.8018 15.27606263 68130
Epoch: Aug 24, 2026 • Age: 23 hours

当前状态

高度 490.5 km
远地点 / 近地点 N/A
速度 7.62 km/s
星下点 -31.34°S, 127.03°E
发射日期 Jun 13, 2025
运行时间 1.1 years
类型 internet

技术详情

分类 Payload
质量 575.00 kg
干质量 530.00 kg
总质量 575.00 kg
长度 0.30 m
直径 4.10 m
跨度 29.00 m
形状 Box + pan
制造商 SPXS
平台类型 Starlink V2MO
阶段状态 In Orbit
所有者/国家 SPXS/US

Most Searched